#timestamp,LO_Frequency,Hit,StdDev 
1521360015.1,286047003.4,N
1521360016.0,286047003.4,N
1521360035.8,286047002.3,N
1521360055.7,286047002.0,N
1521360075.5,286047002.6,N
1521360095.3,286047002.2,N
1521360115.2,286047002.8,N
1521360135.0,286047002.6,N
1521360135.9,286047002.6,N
1521360155.8,286047002.7,N
1521360175.6,286047002.5,N
1521360195.4,286047002.3,N
1521360215.3,286046999.8,N
1521360235.1,286047000.3,N
1521360255.9,286047000.7,N
1521360275.7,286046998.9,N
1521360295.5,286046998.5,N
1521360315.4,286046999.9,N
1521360335.2,286047000.5,N
1521360355.0,286047000.2,N
1521360355.9,286047000.2,N
1521360375.8,286047000.7,N
1521360395.6,286047001.8,N
1521360415.5,286047000.1,N
1521360435.3,286046999.9,N
1521360455.1,286047002.2,N
1521360475.9,286047002.8,N
1521360495.7,286047002.8,N
1521360515.5,286047000.3,N
1521360535.4,286046999.8,N
1521360555.2,286047000.0,N
1521360575.1,286047000.5,N
1521360576.0,286047000.5,N
1521360595.8,286046999.8,N
1521360615.6,286046999.9,N
1521360635.5,286047002.8,N
1521360655.3,286046999.7,N
1521360675.1,286047000.5,N
1521360695.9,286046999.2,N
1521360715.7,286046998.9,N
1521360735.6,286047002.3,N
1521360755.4,286047000.6,N
1521360775.2,286046998.5,N
1521360795.1,286046998.6,N
1521360796.0,286046998.6,N
1521360815.8,286047001.1,N
1521360835.7,286047001.2,N
1521360855.5,286047000.8,N
1521360875.3,286047001.0,N
1521360895.2,286046999.7,N
1521360915.0,286047001.9,N
1521360915.9,286047001.9,N
1521360935.8,286047002.8,N
1521360955.6,286047000.1,N
1521360975.4,286047001.1,N
1521360995.3,286046999.6,N
1521361015.1,286046999.5,N
1521361035.9,286046999.6,N
1521361055.7,286046999.6,N
1521361075.5,286046997.5,N
1521361095.4,286046999.5,N
1521361115.2,286046999.2,N
1521361135.0,286046999.5,N
1521361135.9,286046999.5,N
1521361155.8,286046998.8,N
1521361175.6,286047001.2,N
1521361195.5,286046999.1,N
1521361215.3,286046996.5,N
1521361235.1,286046999.2,N
1521361255.9,286046998.3,N
1521361275.7,286046998.6,N
1521361295.6,286047002.3,N
1521361315.4,286047000.1,N
1521361335.2,286046999.8,N
1521361355.1,286047000.4,N
1521361356.0,286047000.4,N
1521361375.8,286047002.8,N
1521361395.6,286047001.6,N
1521361415.5,286047001.7,N
1521361435.3,286047002.5,N
1521361455.2,286047002.2,N
1521361475.9,286047002.8,N
1521361495.7,286046999.7,N
1521361515.6,286047000.5,N
1521361535.4,286046999.7,N
1521361555.2,286047002.4,N
1521361575.1,286047001.0,N
1521361576.0,286047001.0,N
1521361595.8,286046999.7,N
1521361615.7,286046999.9,N
1521361635.5,286047000.2,N
1521361655.3,286047000.7,N
1521361675.2,286047000.5,N
1521361695.0,286047002.2,N
1521361695.9,286047002.2,N
1521361715.7,286047000.2,N
1521361735.6,286046999.7,N
1521361755.4,286047001.9,N
1521361775.3,286047001.7,N
1521361795.1,286047004.4,Y
1521361815.8,286047002.0,P
1521361835.7,286047001.8,P
1521361855.5,286047002.3,P
1521361875.4,286046999.9,N
1521361895.2,286047002.8,Y
1521361915.0,286046996.9,P
1521361915.9,286046996.9,N
1521361935.8,286046998.0,N
1521361955.6,286046997.6,N
1521361975.5,286046996.5,N
1521361995.3,286046996.9,N
1521362015.1,286046999.5,N
1521362035.9,286046997.0,N
1521362055.7,286046996.7,N
1521362075.5,286046999.6,N
1521362095.4,286046998.9,N
1521362115.2,286046996.5,N
1521362135.1,286046999.0,N
1521362136.0,286046999.0,N
1521362155.8,286046998.9,N
1521362175.6,286046999.5,N
1521362195.5,286046997.4,N
1521362215.3,286046996.8,N
1521362235.1,286046997.0,N
1521362255.9,286046996.7,N
1521362275.7,286046999.1,N
1521362295.6,286046998.7,N
1521362315.4,286047000.3,N
1521362335.2,286047000.6,N
1521362355.1,286046998.3,N
1521362356.0,286046998.3,N
1521362375.8,286047000.9,N
1521362395.7,286047000.4,N
1521362415.5,286046999.7,N
1521362435.3,286047002.0,N
1521362455.2,286046999.7,N
1521362475.0,286047001.0,N
1521362475.9,286047001.0,N
1521362495.7,286046998.8,N
1521362515.6,286046998.1,N
1521362535.4,286046998.9,N
1521362555.3,286047001.1,N
1521362575.1,286047001.0,N
1521362576.0,286047001.0,N
1521362595.8,286047001.1,N
1521362615.7,286047000.0,N
1521362635.5,286047000.0,N
1521362655.4,286047001.0,N
1521362675.2,286046999.9,N
1521362695.0,286047000.0,N
1521362695.9,286047000.0,N
1521362715.8,286047000.7,N
1521362735.6,286046998.7,N
1521362755.4,286046999.0,N
1521362775.3,286046998.4,N
1521362795.1,286046998.5,N
1521362815.9,286046999.0,N
1521362835.7,286046997.4,N
1521362855.5,286046997.1,N
1521362875.4,286046999.1,N
1521362895.2,286046998.4,N
1521362915.1,286046999.1,N
1521362916.0,286046999.1,N
1521362935.8,286046999.0,N
1521362955.6,286047001.2,N
1521362975.5,286046998.8,N
1521362995.3,286046999.1,N
1521363015.2,286046996.7,N
1521363035.9,286046997.9,N
1521363055.7,286046999.0,N
1521363075.6,286046998.6,N
1521363095.4,286046998.9,N
1521363115.3,286046999.0,N
1521363135.1,286046998.7,N
1521363136.0,286046998.7,N
1521363155.8,286046998.6,N
1521363175.7,286047000.3,N
1521363195.5,286047002.6,N
1521363215.3,286047001.7,N
1521363235.2,286047004.4,Y
1521363255.0,286047004.1,P
1521363255.9,286047004.1,N
1521363275.8,286047004.4,N
1521363295.6,286047001.5,N
1521363315.4,286047002.1,N
1521363335.3,286047001.4,N
1521363355.1,286047002.1,N
1521363375.9,286047002.4,N
1521363395.7,286047002.2,N
1521363415.5,286047001.4,N
1521363435.4,286046999.7,N
1521363455.2,286047000.3,N
1521363475.0,286047000.0,N
1521363475.9,286047000.0,N
1521363495.8,286047000.9,N
1521363515.6,286046998.3,N
1521363535.4,286046998.5,N
1521363555.3,286047001.2,N
1521363575.1,286046998.4,N
1521363595.9,286047001.1,N
